Time,TemperatureF,DewpointF,PressureIn,WindDirection,WindDirectionDegrees,WindSpeedMPH,WindSpeedGustMPH,Humidity,HourlyPrecipIn,Conditions,Clouds,dailyrainin,SolarRadiationWatts/m^2,SoftwareType,DateUTC
2013-03-24 00:05:00,50.5,46.8,30.11,WSW,253,8.0,12.0,87,0.00,,,0.00,0,Wunderground v.1.15,2013-03-24 07:05:00,
2013-03-24 00:14:00,50.4,46.7,30.11,SW,230,7.0,8.0,87,0.00,,,0.00,0,Wunderground v.1.15,2013-03-24 07:14:00,
2013-03-24 00:20:00,50.4,46.7,30.11,WSW,244,6.0,6.0,87,0.00,,,0.00,0,Wunderground v.1.15,2013-03-24 07:20:00,
2013-03-24 00:30:00,50.3,46.6,30.12,WSW,253,6.0,6.0,87,0.00,,,0.00,0,Wunderground v.1.15,2013-03-24 07:30:00,
2013-03-24 00:40:00,50.2,46.5,30.12,WSW,243,6.0,6.0,87,0.00,,,0.00,0,Wunderground v.1.15,2013-03-24 07:40:00,
2013-03-24 00:49:00,50.3,46.9,30.12,WSW,239,5.0,5.0,88,0.00,,,0.00,0,Wunderground v.1.15,2013-03-24 07:49:00,
2013-03-24 00:55:00,50.3,46.9,30.12,SW,229,5.0,5.0,88,0.00,,,0.00,0,Wunderground v.1.15,2013-03-24 07:55:00,
2013-03-24 01:04:00,50.2,46.8,30.12,WSW,251,6.0,6.0,88,0.00,,,0.00,0,Wunderground v.1.15,2013-03-24 08:04:00,
2013-03-24 01:10:00,50.2,46.8,30.12,WSW,249,5.0,6.0,88,0.00,,,0.00,0,Wunderground v.1.15,2013-03-24 08:10:00,
2013-03-24 01:20:00,50.2,46.8,30.12,WSW,254,5.0,5.0,88,0.00,,,0.00,0,Wunderground v.1.15,2013-03-24 08:20:00,
2013-03-24 01:25:00,50.2,46.8,30.12,SW,235,5.0,5.0,88,0.00,,,0.00,0,Wunderground v.1.15,2013-03-24 08:25:00,
2013-03-24 01:35:00,50.3,46.9,30.12,WSW,253,5.0,5.0,88,0.00,,,0.00,0,Wunderground v.1.15,2013-03-24 08:35:00,
2013-03-24 01:45:00,50.2,46.8,30.12,SW,235,5.0,8.0,88,0.00,,,0.00,0,Wunderground v.1.15,2013-03-24 08:45:00,
2013-03-24 01:55:00,50.1,46.7,30.12,WSW,249,4.0,7.0,88,0.00,,,0.00,0,Wunderground v.1.15,2013-03-24 08:55:00,
2013-03-24 02:05:00,50.2,47.1,30.11,SW,224,3.0,4.0,89,0.00,,,0.00,0,Wunderground v.1.15,2013-03-24 09:05:00,
2013-03-24 02:10:00,50.2,47.1,30.11,SW,234,4.0,5.0,89,0.00,,,0.00,0,Wunderground v.1.15,2013-03-24 09:10:00,
2013-03-24 02:20:00,50.1,47.0,30.12,WSW,245,4.0,4.0,89,0.00,,,0.00,0,Wunderground v.1.15,2013-03-24 09:20:00,
2013-03-24 02:25:00,50.1,47.0,30.12,WSW,249,4.0,4.0,89,0.00,,,0.00,0,Wunderground v.1.15,2013-03-24 09:25:00,
2013-03-24 02:35:00,50.1,47.0,30.12,WSW,243,3.0,5.0,89,0.00,,,0.00,0,Wunderground v.1.15,2013-03-24 09:35:00,
2013-03-24 02:44:00,50.1,47.0,30.12,SW,236,3.0,3.0,89,0.00,,,0.00,0,Wunderground v.1.15,2013-03-24 09:44:00,
2013-03-24 02:50:00,50.1,47.0,30.13,WSW,239,2.0,4.0,89,0.00,,,0.00,0,Wunderground v.1.15,2013-03-24 09:50:00,
2013-03-24 02:55:00,50.3,47.2,30.12,WSW,244,2.0,4.0,89,0.00,,,0.00,0,Wunderground v.1.15,2013-03-24 09:55:00,
2013-03-24 03:05:00,50.3,47.2,30.11,SW,229,3.0,5.0,89,0.00,,,0.00,0,Wunderground v.1.15,2013-03-24 10:05:00,
2013-03-24 03:15:00,50.5,47.1,30.11,SW,222,4.0,5.0,88,0.00,,,0.00,0,Wunderground v.1.15,2013-03-24 10:15:00,
2013-03-24 03:25:00,50.5,47.1,30.11,SW,223,3.0,4.0,88,0.00,,,0.00,0,Wunderground v.1.15,2013-03-24 10:25:00,
2013-03-24 03:35:00,50.7,47.3,30.11,SW,222,2.0,2.0,88,0.00,,,0.00,0,Wunderground v.1.15,2013-03-24 10:35:00,
2013-03-24 03:40:00,50.5,47.1,30.11,SW,222,1.0,1.0,88,0.00,,,0.00,0,Wunderground v.1.15,2013-03-24 10:40:00,
2013-03-24 03:50:00,50.4,47.3,30.10,SW,222,1.0,2.0,89,0.00,,,0.00,0,Wunderground v.1.15,2013-03-24 10:50:00,
2013-03-24 03:55:00,50.5,47.4,30.10,SW,222,3.0,4.0,89,0.00,,,0.00,0,Wunderground v.1.15,2013-03-24 10:55:00,
2013-03-24 04:00:00,50.6,47.5,30.10,SW,222,3.0,3.0,89,0.00,,,0.00,0,Wunderground v.1.15,2013-03-24 11:00:00,
2013-03-24 04:10:00,50.2,46.8,30.10,SW,222,0.0,1.0,88,0.00,,,0.00,0,Wunderground v.1.15,2013-03-24 11:10:00,
2013-03-24 04:20:00,49.8,46.7,30.11,SW,222,2.0,2.0,89,0.00,,,0.00,0,Wunderground v.1.15,2013-03-24 11:20:00,
2013-03-24 04:30:00,49.6,46.5,30.11,SW,222,2.0,2.0,89,0.00,,,0.00,0,Wunderground v.1.15,2013-03-24 11:30:00,
2013-03-24 04:35:00,49.6,46.5,30.11,SW,218,1.0,2.0,89,0.00,,,0.00,0,Wunderground v.1.15,2013-03-24 11:35:00,
2013-03-24 04:45:00,49.2,46.1,30.11,SW,218,0.0,0.0,89,0.00,,,0.00,0,Wunderground v.1.15,2013-03-24 11:45:00,
2013-03-24 04:50:00,48.9,45.5,30.11,SW,222,0.0,0.0,88,0.00,,,0.00,0,Wunderground v.1.15,2013-03-24 11:50:00,
2013-03-24 04:59:00,48.5,45.4,30.11,SW,222,0.0,0.0,89,0.00,,,0.00,0,Wunderground v.1.15,2013-03-24 11:59:00,
2013-03-24 05:05:00,48.5,45.4,30.12,SW,218,0.0,0.0,89,0.00,,,0.00,0,Wunderground v.1.15,2013-03-24 12:05:00,
2013-03-24 05:15:00,48.5,45.4,30.11,SW,222,2.0,3.0,89,0.00,,,0.00,0,Wunderground v.1.15,2013-03-24 12:15:00,
2013-03-24 05:20:00,48.8,46.0,30.11,SSW,192,3.0,5.0,90,0.00,,,0.00,0,Wunderground v.1.15,2013-03-24 12:20:00,
2013-03-24 05:29:00,49.6,46.2,30.11,South,169,4.0,4.0,88,0.00,,,0.00,0,Wunderground v.1.15,2013-03-24 12:29:00,
2013-03-24 05:35:00,49.7,46.6,30.11,South,169,4.0,5.0,89,0.00,,,0.00,0,Wunderground v.1.15,2013-03-24 12:35:00,
2013-03-24 05:40:00,50.3,47.2,30.11,South,170,4.0,5.0,89,0.00,,,0.00,0,Wunderground v.1.15,2013-03-24 12:40:00,
2013-03-24 05:50:00,50.4,47.3,30.11,South,172,4.0,4.0,89,0.00,,,0.00,0,Wunderground v.1.15,2013-03-24 12:50:00,
2013-03-24 05:55:00,50.6,47.5,30.12,South,170,4.0,5.0,89,0.00,,,0.00,0,Wunderground v.1.15,2013-03-24 12:55:00,
2013-03-24 06:05:00,50.5,47.4,30.12,South,170,1.0,3.0,89,0.00,,,0.00,0,Wunderground v.1.15,2013-03-24 13:05:00,
2013-03-24 06:15:00,50.3,47.2,30.12,WSW,250,2.0,2.0,89,0.00,,,0.00,0,Wunderground v.1.15,2013-03-24 13:15:00,
2013-03-24 06:20:00,50.3,47.2,30.12,WSW,252,3.0,3.0,89,0.00,,,0.00,0,Wunderground v.1.15,2013-03-24 13:20:00,
2013-03-24 06:30:00,50.1,47.0,30.12,WSW,253,1.0,1.0,89,0.00,,,0.00,0,Wunderground v.1.15,2013-03-24 13:30:00,
2013-03-24 06:40:00,50.3,47.5,30.12,SSW,213,1.0,4.0,90,0.00,,,0.00,0,Wunderground v.1.15,2013-03-24 13:40:00,
2013-03-24 06:49:00,49.6,46.5,30.12,South,176,3.0,5.0,89,0.00,,,0.00,0,Wunderground v.1.15,2013-03-24 13:49:00,
2013-03-24 06:55:00,49.6,46.5,30.12,South,175,4.0,5.0,89,0.00,,,0.00,0,Wunderground v.1.15,2013-03-24 13:55:00,
2013-03-24 07:00:00,49.5,46.4,30.12,South,175,3.0,3.0,89,0.00,,,0.00,0,Wunderground v.1.15,2013-03-24 14:00:00,
2013-03-24 07:09:00,49.7,46.6,30.12,South,174,0.0,0.0,89,0.00,,,0.00,7,Wunderground v.1.15,2013-03-24 14:09:00,
2013-03-24 07:15:00,49.5,46.4,30.13,South,174,0.0,0.0,89,0.00,,,0.00,12,Wunderground v.1.15,2013-03-24 14:15:00,
2013-03-24 07:20:00,49.8,47.0,30.13,South,176,0.0,0.0,90,0.00,,,0.00,18,Wunderground v.1.15,2013-03-24 14:20:00,
2013-03-24 07:30:00,50.1,47.3,30.12,West,264,3.0,3.0,90,0.00,,,0.00,30,Wunderground v.1.15,2013-03-24 14:30:00,
2013-03-24 07:35:00,50.2,47.4,30.13,WSW,250,3.0,3.0,90,0.00,,,0.00,37,Wunderground v.1.15,2013-03-24 14:35:00,
2013-03-24 07:45:00,50.4,47.6,30.13,SSW,213,1.0,2.0,90,0.00,,,0.00,54,Wunderground v.1.15,2013-03-24 14:45:00,
2013-03-24 07:55:00,50.6,47.5,30.13,WSW,255,1.0,2.0,89,0.00,,,0.00,76,Wunderground v.1.15,2013-03-24 14:55:00,
2013-03-24 08:00:00,50.8,47.7,30.13,WSW,255,1.0,1.0,89,0.00,,,0.00,84,Wunderground v.1.15,2013-03-24 15:00:00,
2013-03-24 08:10:00,51.0,47.9,30.13,WSW,257,1.0,3.0,89,0.00,,,0.00,118,Wunderground v.1.15,2013-03-24 15:10:00,
2013-03-24 08:19:00,51.2,48.1,30.13,WSW,257,2.0,4.0,89,0.00,,,0.00,146,Wunderground v.1.15,2013-03-24 15:19:00,
2013-03-24 08:25:00,51.2,48.1,30.13,WSW,253,2.0,4.0,89,0.00,,,0.00,153,Wunderground v.1.15,2013-03-24 15:25:00,
2013-03-24 08:35:00,51.1,48.0,30.13,WSW,256,3.0,3.0,89,0.00,,,0.00,163,Wunderground v.1.15,2013-03-24 15:35:00,
2013-03-24 08:45:00,51.1,48.0,30.13,SSW,213,1.0,2.0,89,0.00,,,0.00,158,Wunderground v.1.15,2013-03-24 15:45:00,
2013-03-24 08:55:00,51.8,48.7,30.14,SSW,213,1.0,1.0,89,0.00,,,0.00,234,Wunderground v.1.15,2013-03-24 15:55:00,
2013-03-24 09:00:00,52.4,49.3,30.14,West,264,0.0,2.0,89,0.00,,,0.00,257,Wunderground v.1.15,2013-03-24 16:00:00,
2013-03-24 09:10:00,52.6,48.8,30.13,WSW,244,2.0,5.0,87,0.00,,,0.00,308,Wunderground v.1.15,2013-03-24 16:10:00,
2013-03-24 09:15:00,52.8,49.0,30.13,WSW,243,3.0,5.0,87,0.00,,,0.00,330,Wunderground v.1.15,2013-03-24 16:15:00,
2013-03-24 09:25:00,53.0,48.6,30.13,SSW,213,3.0,3.0,85,0.00,,,0.00,360,Wunderground v.1.15,2013-03-24 16:25:00,
2013-03-24 09:35:00,53.5,49.1,30.14,SW,234,2.0,5.0,85,0.00,,,0.00,390,Wunderground v.1.15,2013-03-24 16:35:00,
2013-03-24 09:45:00,53.8,48.8,30.14,SW,232,2.0,4.0,83,0.00,,,0.00,427,Wunderground v.1.15,2013-03-24 16:45:00,
2013-03-24 09:55:00,53.9,48.9,30.14,SW,226,2.0,2.0,83,0.00,,,0.00,461,Wunderground v.1.15,2013-03-24 16:55:00,
2013-03-24 10:05:00,54.1,48.7,30.14,SW,218,3.0,3.0,82,0.00,,,0.00,490,Wunderground v.1.15,2013-03-24 17:05:00,
2013-03-24 10:10:00,54.5,49.1,30.14,SW,226,3.0,3.0,82,0.00,,,0.00,504,Wunderground v.1.15,2013-03-24 17:10:00,
2013-03-24 10:20:00,54.8,49.1,30.13,SW,218,3.0,5.0,81,0.00,,,0.00,529,Wunderground v.1.15,2013-03-24 17:20:00,
2013-03-24 10:30:00,54.5,49.1,30.13,SSW,213,3.0,3.0,82,0.00,,,0.00,550,Wunderground v.1.15,2013-03-24 17:30:00,
2013-03-24 10:35:00,54.6,49.2,30.13,SSW,213,3.0,5.0,82,0.00,,,0.00,571,Wunderground v.1.15,2013-03-24 17:35:00,
2013-03-24 10:45:00,54.7,49.3,30.12,SSW,213,4.0,6.0,82,0.00,,,0.00,608,Wunderground v.1.15,2013-03-24 17:45:00,
2013-03-24 10:55:00,54.7,49.3,30.12,SW,231,5.0,6.0,82,0.00,,,0.00,628,Wunderground v.1.15,2013-03-24 17:55:00,
2013-03-24 11:05:00,55.2,49.8,30.12,SSW,213,4.0,4.0,82,0.00,,,0.00,659,Wunderground v.1.15,2013-03-24 18:05:00,
2013-03-24 11:10:00,54.1,48.4,30.12,WSW,249,5.0,5.0,81,0.00,,,0.00,671,Wunderground v.1.15,2013-03-24 18:10:00,
2013-03-24 11:20:00,53.7,48.7,30.12,West,259,6.0,6.0,83,0.00,,,0.00,691,Wunderground v.1.15,2013-03-24 18:20:00,
2013-03-24 11:25:00,54.0,49.0,30.12,WSW,255,6.0,6.0,83,0.00,,,0.00,701,Wunderground v.1.15,2013-03-24 18:25:00,
2013-03-24 11:35:00,54.4,49.0,30.11,WSW,253,5.0,6.0,82,0.00,,,0.00,726,Wunderground v.1.15,2013-03-24 18:35:00,
2013-03-24 11:40:00,54.3,48.9,30.11,West,262,5.0,5.0,82,0.00,,,0.00,715,Wunderground v.1.15,2013-03-24 18:40:00,
2013-03-24 11:50:00,54.4,48.7,30.11,SSW,213,5.0,6.0,81,0.00,,,0.00,714,Wunderground v.1.15,2013-03-24 18:50:00,
2013-03-24 12:00:00,54.5,48.8,30.11,SSW,213,7.0,8.0,81,0.00,,,0.00,770,Wunderground v.1.15,2013-03-24 19:00:00,
2013-03-24 12:10:00,54.9,48.8,30.11,SSW,213,7.0,7.0,80,0.00,,,0.00,758,Wunderground v.1.15,2013-03-24 19:10:00,
2013-03-24 12:15:00,55.0,48.9,30.11,WSW,243,7.0,7.0,80,0.00,,,0.00,780,Wunderground v.1.15,2013-03-24 19:15:00,
2013-03-24 12:25:00,55.6,48.8,30.11,SSW,213,7.0,7.0,78,0.00,,,0.00,800,Wunderground v.1.15,2013-03-24 19:25:00,
2013-03-24 12:34:00,56.1,47.6,30.10,WSW,257,7.0,7.0,73,0.00,,,0.00,816,Wunderground v.1.15,2013-03-24 19:34:00,
2013-03-24 12:40:00,56.3,47.4,30.10,WSW,249,7.0,10.0,72,0.00,,,0.00,817,Wunderground v.1.15,2013-03-24 19:40:00,
2013-03-24 12:50:00,55.7,47.9,30.10,West,268,8.0,8.0,75,0.00,,,0.00,824,Wunderground v.1.15,2013-03-24 19:50:00,
2013-03-24 13:00:00,56.1,48.3,30.10,WSW,241,8.0,8.0,75,0.00,,,0.00,831,Wunderground v.1.15,2013-03-24 20:00:00,
2013-03-24 13:05:00,56.3,48.5,30.10,SSW,213,7.0,9.0,75,0.00,,,0.00,835,Wunderground v.1.15,2013-03-24 20:05:00,
2013-03-24 13:15:00,57.1,48.9,30.09,WSW,237,6.0,7.0,74,0.00,,,0.00,840,Wunderground v.1.15,2013-03-24 20:15:00,
2013-03-24 13:24:00,56.9,48.3,30.09,WSW,249,5.0,5.0,73,0.00,,,0.00,846,Wunderground v.1.15,2013-03-24 20:24:00,
2013-03-24 13:30:00,57.2,47.9,30.09,WSW,256,5.0,6.0,71,0.00,,,0.00,847,Wunderground v.1.15,2013-03-24 20:30:00,
2013-03-24 13:35:00,57.1,47.4,30.09,SSW,213,4.0,6.0,70,0.00,,,0.00,844,Wunderground v.1.15,2013-03-24 20:35:00,
2013-03-24 13:45:00,57.7,48.4,30.08,SW,228,5.0,6.0,71,0.00,,,0.00,844,Wunderground v.1.15,2013-03-24 20:45:00,
2013-03-24 13:54:00,58.0,48.3,30.08,SSW,213,6.0,7.0,70,0.00,,,0.00,844,Wunderground v.1.15,2013-03-24 20:54:00,
2013-03-24 14:00:00,58.6,48.5,30.08,SW,226,5.0,6.0,69,0.00,,,0.00,844,Wunderground v.1.15,2013-03-24 21:00:00,
2013-03-24 14:09:00,59.0,49.2,30.07,SW,222,6.0,6.0,70,0.00,,,0.00,828,Wunderground v.1.15,2013-03-24 21:09:00,
2013-03-24 14:15:00,59.1,49.3,30.07,WSW,241,6.0,6.0,70,0.00,,,0.00,835,Wunderground v.1.15,2013-03-24 21:15:00,
2013-03-24 14:24:00,58.0,48.3,30.06,WSW,249,7.0,7.0,70,0.00,,,0.00,828,Wunderground v.1.15,2013-03-24 21:24:00,
2013-03-24 14:30:00,57.8,49.2,30.06,WSW,256,7.0,10.0,73,0.00,,,0.00,826,Wunderground v.1.15,2013-03-24 21:30:00,
2013-03-24 14:40:00,57.1,48.9,30.05,WSW,242,9.0,10.0,74,0.00,,,0.00,814,Wunderground v.1.15,2013-03-24 21:40:00,
2013-03-24 14:45:00,57.2,49.3,30.05,WSW,257,9.0,12.0,75,0.00,,,0.00,809,Wunderground v.1.15,2013-03-24 21:45:00,
2013-03-24 14:54:00,56.6,49.1,30.05,West,264,11.0,11.0,76,0.00,,,0.00,793,Wunderground v.1.15,2013-03-24 21:54:00,
2013-03-24 14:59:00,56.8,49.3,30.05,West,266,11.0,13.0,76,0.00,,,0.00,789,Wunderground v.1.15,2013-03-24 21:59:00,
2013-03-24 15:05:00,56.7,49.2,30.05,West,266,11.0,15.0,76,0.00,,,0.00,775,Wunderground v.1.15,2013-03-24 22:05:00,
2013-03-24 15:14:00,56.7,49.6,30.04,WSW,240,11.0,14.0,77,0.00,,,0.00,761,Wunderground v.1.15,2013-03-24 22:14:00,
2013-03-24 15:24:00,56.8,49.7,30.05,SSW,213,11.0,13.0,77,0.00,,,0.00,744,Wunderground v.1.15,2013-03-24 22:24:00,
2013-03-24 15:30:00,57.7,50.2,30.04,SSW,213,9.0,9.0,76,0.00,,,0.00,737,Wunderground v.1.15,2013-03-24 22:30:00,
2013-03-24 15:35:00,58.8,51.2,30.04,SW,228,6.0,9.0,76,0.00,,,0.00,724,Wunderground v.1.15,2013-03-24 22:35:00,
2013-03-24 15:45:00,58.7,50.8,30.04,SW,225,7.0,8.0,75,0.00,,,0.00,705,Wunderground v.1.15,2013-03-24 22:45:00,
2013-03-24 15:54:00,58.9,50.6,30.03,WSW,251,7.0,9.0,74,0.00,,,0.00,689,Wunderground v.1.15,2013-03-24 22:54:00,
2013-03-24 16:00:00,59.5,51.6,30.03,SSW,213,5.0,5.0,75,0.00,,,0.00,673,Wunderground v.1.15,2013-03-24 23:00:00,
2013-03-24 16:10:00,58.9,51.0,30.03,SW,230,7.0,7.0,75,0.00,,,0.00,642,Wunderground v.1.15,2013-03-24 23:10:00,
2013-03-24 16:15:00,59.3,50.6,30.02,SW,228,6.0,8.0,73,0.00,,,0.00,629,Wunderground v.1.15,2013-03-24 23:15:00,
2013-03-24 16:25:00,58.8,50.2,30.02,SW,226,7.0,7.0,73,0.00,,,0.00,599,Wunderground v.1.15,2013-03-24 23:25:00,
2013-03-24 16:34:00,58.7,50.4,30.02,WSW,245,7.0,9.0,74,0.00,,,0.00,575,Wunderground v.1.15,2013-03-24 23:34:00,
2013-03-24 16:39:00,58.3,50.0,30.02,SW,228,8.0,8.0,74,0.00,,,0.00,561,Wunderground v.1.15,2013-03-24 23:39:00,
2013-03-24 16:45:00,58.3,50.4,30.01,WSW,247,8.0,8.0,75,0.00,,,0.00,548,Wunderground v.1.15,2013-03-24 23:45:00,
2013-03-24 16:55:00,58.6,50.7,30.01,WSW,239,6.0,6.0,75,0.00,,,0.00,522,Wunderground v.1.15,2013-03-24 23:55:00,
2013-03-24 17:05:00,58.2,50.3,30.01,WSW,255,7.0,10.0,75,0.00,,,0.00,497,Wunderground v.1.15,2013-03-25 00:05:00,
2013-03-24 17:15:00,58.5,50.6,30.01,West,262,6.0,8.0,75,0.00,,,0.00,471,Wunderground v.1.15,2013-03-25 00:15:00,
2013-03-24 17:20:00,58.5,50.6,30.01,SW,228,7.0,7.0,75,0.00,,,0.00,450,Wunderground v.1.15,2013-03-25 00:20:00,
2013-03-24 17:30:00,58.4,50.5,30.01,West,265,6.0,6.0,75,0.00,,,0.00,406,Wunderground v.1.15,2013-03-25 00:30:00,
2013-03-24 17:39:00,57.3,49.8,30.01,SSW,213,7.0,8.0,76,0.00,,,0.00,369,Wunderground v.1.15,2013-03-25 00:39:00,
2013-03-24 17:45:00,56.3,49.5,30.01,SSW,208,9.0,10.0,78,0.00,,,0.00,338,Wunderground v.1.15,2013-03-25 00:45:00,
2013-03-24 17:55:00,54.9,49.5,30.01,SW,227,10.0,10.0,82,0.00,,,0.00,288,Wunderground v.1.15,2013-03-25 00:55:00,
2013-03-24 18:04:00,54.1,50.0,30.01,SSW,213,11.0,14.0,86,0.00,,,0.00,81,Wunderground v.1.15,2013-03-25 01:04:00,
2013-03-24 18:10:00,53.9,49.8,30.01,SW,218,10.0,10.0,86,0.00,,,0.00,79,Wunderground v.1.15,2013-03-25 01:10:00,
2013-03-24 18:20:00,53.7,50.2,30.01,SSW,213,9.0,10.0,88,0.00,,,0.00,72,Wunderground v.1.15,2013-03-25 01:20:00,
2013-03-24 18:29:00,54.0,50.8,30.01,SW,226,9.0,9.0,89,0.00,,,0.00,81,Wunderground v.1.15,2013-03-25 01:29:00,
2013-03-24 18:34:00,54.0,50.5,30.01,WSW,244,7.0,9.0,88,0.00,,,0.00,169,Wunderground v.1.15,2013-03-25 01:34:00,
2013-03-24 18:40:00,54.3,50.5,30.01,WSW,248,5.0,5.0,87,0.00,,,0.00,142,Wunderground v.1.15,2013-03-25 01:40:00,
2013-03-24 18:49:00,54.4,50.0,30.01,SSW,213,6.0,6.0,85,0.00,,,0.00,93,Wunderground v.1.15,2013-03-25 01:49:00,
2013-03-24 18:55:00,54.2,49.8,30.01,WSW,257,7.0,8.0,85,0.00,,,0.00,79,Wunderground v.1.15,2013-03-25 01:55:00,
2013-03-24 19:00:00,53.9,49.8,30.01,SSW,213,7.0,8.0,86,0.00,,,0.00,39,Wunderground v.1.15,2013-03-25 02:00:00,
2013-03-24 19:09:00,53.6,50.4,30.01,SSW,213,9.0,14.0,89,0.00,,,0.00,18,Wunderground v.1.15,2013-03-25 02:09:00,
2013-03-24 19:15:00,53.5,50.3,30.01,SSW,213,11.0,14.0,89,0.00,,,0.00,11,Wunderground v.1.15,2013-03-25 02:15:00,
2013-03-24 19:25:00,53.4,50.5,30.01,SSW,213,11.0,12.0,90,0.00,,,0.00,0,Wunderground v.1.15,2013-03-25 02:25:00,
2013-03-24 19:35:00,53.8,50.6,30.01,SW,232,5.0,8.0,89,0.00,,,0.00,0,Wunderground v.1.15,2013-03-25 02:35:00,
2013-03-24 19:44:00,54.1,50.9,30.01,SW,218,3.0,5.0,89,0.00,,,0.00,0,Wunderground v.1.15,2013-03-25 02:44:00,
2013-03-24 19:50:00,54.2,50.7,30.01,WSW,247,5.0,6.0,88,0.00,,,0.00,0,Wunderground v.1.15,2013-03-25 02:50:00,
2013-03-24 19:59:00,54.0,50.5,30.01,SW,228,4.0,4.0,88,0.00,,,0.00,0,Wunderground v.1.15,2013-03-25 02:59:00,
2013-03-24 20:05:00,54.0,50.5,30.01,WSW,243,5.0,5.0,88,0.00,,,0.00,0,Wunderground v.1.15,2013-03-25 03:05:00,
2013-03-24 20:14:00,53.8,50.3,30.01,SW,234,3.0,5.0,88,0.00,,,0.00,0,Wunderground v.1.15,2013-03-25 03:14:00,
2013-03-24 20:19:00,53.7,50.2,30.02,SW,218,4.0,4.0,88,0.00,,,0.00,0,Wunderground v.1.15,2013-03-25 03:19:00,
2013-03-24 20:25:00,53.6,50.4,30.02,SW,222,4.0,7.0,89,0.00,,,0.00,0,Wunderground v.1.15,2013-03-25 03:25:00,
2013-03-24 20:35:00,53.2,50.0,30.02,WSW,237,5.0,5.0,89,0.00,,,0.00,0,Wunderground v.1.15,2013-03-25 03:35:00,
2013-03-24 20:40:00,53.0,49.8,30.02,WSW,254,5.0,7.0,89,0.00,,,0.00,0,Wunderground v.1.15,2013-03-25 03:40:00,
2013-03-24 20:49:00,52.8,49.6,30.02,SW,218,5.0,7.0,89,0.00,,,0.00,0,Wunderground v.1.15,2013-03-25 03:49:00,
2013-03-24 20:55:00,52.7,49.5,30.02,SW,223,6.0,8.0,89,0.00,,,0.00,0,Wunderground v.1.15,2013-03-25 03:55:00,
2013-03-24 21:05:00,52.6,49.4,30.03,SSW,213,7.0,10.0,89,0.00,,,0.00,0,Wunderground v.1.15,2013-03-25 04:05:00,
2013-03-24 21:14:00,52.5,49.7,30.03,SSW,204,6.0,10.0,90,0.00,,,0.00,0,Wunderground v.1.15,2013-03-25 04:14:00,
2013-03-24 21:20:00,52.5,49.7,30.03,SW,226,6.0,6.0,90,0.00,,,0.00,0,Wunderground v.1.15,2013-03-25 04:20:00,
2013-03-24 21:30:00,52.6,49.4,30.03,SW,227,5.0,5.0,89,0.00,,,0.00,0,Wunderground v.1.15,2013-03-25 04:30:00,
2013-03-24 21:34:00,52.4,49.3,30.03,SW,234,5.0,6.0,89,0.00,,,0.00,0,Wunderground v.1.15,2013-03-25 04:34:00,
2013-03-24 21:39:00,52.2,49.1,30.03,WSW,249,5.0,7.0,89,0.00,,,0.00,0,Wunderground v.1.15,2013-03-25 04:39:00,
2013-03-24 21:45:00,52.0,48.9,30.04,SW,222,6.0,8.0,89,0.00,,,0.00,0,Wunderground v.1.15,2013-03-25 04:45:00,
2013-03-24 22:00:00,51.8,48.7,30.03,SW,223,6.0,10.0,89,0.00,,,0.00,0,Wunderground v.1.15,2013-03-25 05:00:00,
2013-03-24 22:05:00,51.4,48.3,30.04,West,270,7.0,10.0,89,0.00,,,0.00,0,Wunderground v.1.15,2013-03-25 05:05:00,
2013-03-24 22:14:00,50.9,47.8,30.04,WSW,239,8.0,9.0,89,0.00,,,0.00,0,Wunderground v.1.15,2013-03-25 05:14:00,
2013-03-24 22:20:00,50.7,47.9,30.04,SW,234,8.0,8.0,90,0.00,,,0.00,0,Wunderground v.1.15,2013-03-25 05:20:00,
2013-03-24 22:30:00,50.8,48.0,30.05,WSW,242,9.0,11.0,90,0.00,,,0.00,0,Wunderground v.1.15,2013-03-25 05:30:00,
2013-03-24 22:45:00,50.5,47.7,30.05,SSW,213,10.0,10.0,90,0.00,,,0.00,0,Wunderground v.1.15,2013-03-25 05:45:00,
2013-03-24 22:55:00,50.5,48.0,30.05,SSW,203,11.0,12.0,91,0.00,,,0.00,0,Wunderground v.1.15,2013-03-25 05:55:00,
2013-03-24 23:05:00,50.2,47.7,30.05,SSW,203,14.0,15.0,91,0.00,,,0.00,0,Wunderground v.1.15,2013-03-25 06:05:00,
2013-03-24 23:15:00,50.2,47.7,30.05,SSW,213,16.0,17.0,91,0.00,,,0.00,0,Wunderground v.1.15,2013-03-25 06:15:00,
2013-03-24 23:25:00,49.9,47.4,30.05,SSW,213,15.0,15.0,91,0.00,,,0.00,0,Wunderground v.1.15,2013-03-25 06:25:00,
2013-03-24 23:34:00,50.3,47.8,30.05,SSW,202,14.0,18.0,91,0.00,,,0.00,0,Wunderground v.1.15,2013-03-25 06:34:00,
2013-03-24 23:40:00,50.3,47.8,30.05,SSW,208,15.0,15.0,91,0.00,,,0.00,0,Wunderground v.1.15,2013-03-25 06:40:00,
2013-03-24 23:50:00,49.9,47.1,30.05,SW,218,12.0,12.0,90,0.00,,,0.00,0,Wunderground v.1.15,2013-03-25 06:50:00,